Wind_Speed
14 13 17 21 18 21 14 11 8 2 5 9 12 12 8 13 7 10 13 15 14 15 16 17 16 14 13 13 12 11 11 9 6 5 3 1 3 9 10 8 8 6 10 16
7 15 19 20 11 10 10 10 10 6 2 9 7 10 10 2 7 7 12 15 16 16 15 16 16 15 14 13 12 10 10 10 7 4 1 2 3 5 5 8 6 6 8 10
14 10 19 6 10 11 14 15 12 9 8 11 8 12 9 9 6 6 8 12 16 17 18 15 18 16 15 13 12 11 12 10 7 5 3 3 7 3 7 7 7 7 7 7
12 13 5 9 15 15 16 16 15 5 9 13 8 7 12 13 11 11 9 11 12 17 16 16 16 16 14 12 11 11 13 12 10 8 6 6 8 6 6 3 3 4 4 3
14 13 10 14 17 15 16 4 8 12 13 15 9 7 6 7 7 7 2 0 11 17 16 16 15 16 14 12 12 13 13 12 11 10 8 8 8 7 5 5 3 3 3 2
19 3 13 17 15 11 14 7 7 10 13 13 12 11 7 3 8 4 8 4 10 15 15 15 16 15 14 14 13 13 14 12 12 10 9 8 7 3 3 3 5 3 4 1
14 12 12 12 7 13 11 13 9 11 12 12 4 3 8 6 8 4 5 7 9 13 14 13 15 17 17 16 14 14 14 13 12 11 11 8 6 6 6 5 1 3 4 4
12 14 17 13 18 12 15 17 11 12 8 5 8 5 4 9 6 5 7 8 12 11 12 14 15 17 18 17 15 14 15 14 14 14 12 8 9 8 5 2 2 4 4 4
6 15 17 16 15 17 16 16 18 11 11 9 8 11 10 8 8 5 10 10 10 10 11 13 15 17 18 17 16 14 13 13 13 14 13 10 10 7 6 4 3 4 2 4
9 10 11 14 9 9 13 7 12 8 11 12 8 2 8 9 10 10 10 9 9 9 10 11 13 17 16 15 14 12 13 13 13 12 10 9 7 6 6 5 3 5 3 3
16 8 11 11 13 15 11 12 10 15 7 6 6 6 13 9 12 11 8 8 9 9 9 9 12 16 16 15 13 11 11 11 10 10 8 3 11 10 7 6 6 5 4 3
18 8 13 13 15 20 20 16 16 10 12 7 11 1 9 11 8 10 9 7 4 4 6 9 11 15 14 14 14 11 10 10 10 11 14 10 12 7 8 7 7 6 5 4
14 10 12 16 10 8 12 16 10 12 11 12 7 6 10 10 11 8 10 7 5 4 6 7 9 11 12 15 18 12 11 11 12 13 12 12 10 10 9 8 7 7 7 6
7 12 13 12 15 13 19 18 18 16 13 11 13 11 5 8 12 9 9 7 7 5 6 8 9 11 11 16 15 13 13 13 15 14 13 11 11 10 9 8 7 7 7 7
9 12 16 19 18 14 10 15 18 17 18 17 2 15 4 9 11 10 8 7 6 5 6 8 8 10 17 14 16 14 14 15 17 15 12 13 11 11 10 10 9 8 7 7
16 13 15 18 18 19 13 15 7 14 19 22 8 14 4 10 9 8 7 6 5 4 4 5 7 11 18 14 15 15 17 18 16 16 14 9 10 11 10 9 8 7 7 6
12 13 14 17 18 19 18 16 14 11 11 11 11 20 15 14 9 7 6 5 4 3 3 4 6 10 15 16 14 14 16 17 16 14 13 12 12 12 11 9 9 9 7 7
10 12 12 14 16 22 12 19 19 15 15 12 12 11 7 7 9 9 3 5 4 4 1 3 6 10 13 15 14 14 16 16 13 12 13 13 13 11 10 11 10 8 8 7
13 10 12 13 16 13 8 6 12 13 14 10 16 13 14 13 12 9 8 5 4 4 4 3 7 4 13 13 14 16 16 18 15 13 13 14 13 12 13 11 10 8 8 9
11 11 12 12 19 16 15 15 9 11 8 6 2 10 11 12 6 8 9 8 4 3 2 1 4 6 11 13 15 14 15 16 18 14 13 13 13 13 15 16 14 12 9 11
11 10 15 14 12 6 9 10 5 14 4 4 6 10 11 6 6 10 9 8 7 5 2 2 2 6 10 11 12 12 13 14 14 15 13 14 14 16 15 14 17 16 14 15
13 12 13 15 5 6 2 5 8 6 4 6 9 6 10 11 8 6 8 7 5 6 5 4 4 6 7 5 10 10 11 7 6 8 10 13 14 15 15 14 15 16 13 16
4 5 3 8 6 4 8 12 9 5 5 4 7 7 9 10 9 7 6 5 5 5 6 6 8 7 5 3 3 7 5 5 6 7 8 12 12 13 14 16 17 19 18 14
4 3 1 5 8 7 7 11 11 7 6 4 4 6 7 8 6 6 6 4 5 4 3 4 8 6 5 4 3 3 4 6 6 7 6 5 6 7 6 6 11 15 25 20
7 4 3 0 4 3 12 12 8 9 6 5 6 3 5 8 8 6 7 6 5 5 3 4 5 4 4 4 5 3 2 2 4 6 8 8 7 7 11 9 12 13 21 26
7 5 1 4 7 5 8 6 3 5 5 5 7 8 7 9 10 8 7 8 6 6 4 5 5 4 3 3 3 2 3 3 4 6 8 8 7 4 6 6 5 8 10 14
Wind_Direction
202 227 228 236 232 264 321 226 3 55 83 261 265 245 246 153 197 197 185 188 193 189 181 179 185 189 191 191 196 201 189 197 207 257 164 226 225 212 223 266 263 266 225 224
222 230 241 234 309 261 275 274 258 226 213 285 261 241 224 138 197 219 187 189 199 191 176 176 180 189 197 191 192 200 198 196 211 228 299 360 182 224 235 272 265 242 238 220
243 243 218 240 233 253 249 261 257 256 173 244 274 252 185 206 210 195 274 192 192 208 174 181 179 190 195 193 190 192 184 190 195 194 149 123 156 192 230 233 236 241 237 233
245 246 233 237 241 227 254 244 257 254 248 260 202 284 189 191 189 187 233 204 198 194 183 171 179 189 197 188 186 183 177 185 181 174 177 175 175 195 203 218 216 209 227 258
224 236 202 232 228 237 251 289 222 241 262 269 252 240 112 176 231 182 101 272 176 178 184 171 179 179 187 179 179 176 177 182 176 176 180 192 213 188 203 185 193 241 250 281
265 216 227 233 232 243 243 248 244 253 254 257 227 264 275 306 114 132 109 143 158 169 178 171 168 160 174 172 175 173 175 177 174 181 177 202 207 226 155 202 265 282 300 325
217 214 232 246 212 219 230 221 221 220 226 242 71 251 289 94 77 25 93 156 164 157 164 163 157 171 171 170 173 175 179 179 179 186 184 190 211 206 190 201 279 338 308 358
213 203 209 184 234 193 219 238 248 259 266 255 148 229 205 79 110 130 175 181 143 155 160 167 166 175 172 170 174 179 177 179 183 186 186 186 186 192 192 181 44 345 5 2
238 242 187 204 211 250 193 228 257 294 277 284 286 157 150 156 132 140 127 149 140 135 148 157 169 173 171 173 175 175 173 181 187 185 188 198 194 187 103 110 151 98 20 20
269 273 176 182 242 231 271 221 234 235 273 266 276 131 109 163 165 129 137 136 138 149 146 163 170 171 169 170 168 165 168 183 185 190 205 215 197 144 121 128 95 82 66 33
236 239 199 176 203 218 207 246 246 276 301 300 243 233 116 111 121 125 134 141 156 151 156 165 174 164 172 158 156 154 160 176 182 126 124 13 110 117 131 141 116 96 84 88
227 226 253 203 224 223 245 217 232 244 232 263 295 69 152 111 119 138 124 138 135 158 154 162 172 163 166 156 151 141 144 145 145 154 141 134 136 161 149 142 116 113 100 99
219 230 240 251 178 220 250 249 254 244 256 276 271 265 134 126 128 129 138 143 148 149 139 154 160 178 168 128 116 142 147 151 153 159 153 166 192 161 152 139 129 123 116 99
290 238 239 245 228 239 196 235 244 240 250 234 240 132 139 154 142 143 145 154 150 151 150 157 168 180 160 134 133 154 155 153 154 161 165 176 190 150 155 145 145 139 127 121
240 244 249 257 272 288 276 202 223 230 243 239 36 12 124 158 138 141 147 150 161 168 170 152 176 183 134 152 155 163 154 149 156 165 177 187 164 164 161 162 156 151 143 141
223 235 251 256 253 261 248 253 253 214 229 237 213 151 286 321 94 124 144 163 172 161 129 159 181 190 147 165 170 164 162 169 166 172 173 181 162 160 168 173 165 161 155 150
228 236 239 247 242 246 237 247 212 225 233 257 239 132 172 210 121 135 148 153 142 122 132 152 178 188 153 171 169 170 169 170 176 180 178 178 183 176 178 190 177 170 172 167
253 232 250 246 242 240 236 231 234 211 214 201 119 123 128 130 117 109 98 130 114 55 46 156 175 176 170 166 171 171 172 175 182 183 178 180 184 194 196 191 194 181 176 181
241 248 231 247 241 231 196 249 236 228 218 208 120 133 142 136 132 134 125 61 60 45 43 327 329 233 176 164 173 175 179 186 192 186 185 186 191 194 192 196 194 175 179 184
228 236 260 229 250 235 243 174 196 221 222 106 150 147 156 152 216 155 136 129 103 86 77 263 254 233 169 169 177 181 187 190 197 201 195 188 192 200 197 202 199 193 198 196
222 229 227 237 230 152 6 9 266 205 126 135 166 163 151 144 48 115 117 101 81 83 94 87 299 196 161 175 181 187 181 194 202 208 196 195 198 199 209 204 205 202 201 193
201 219 233 232 326 137 84 191 302 71 99 118 116 134 131 101 118 116 93 108 114 102 95 97 111 76 61 181 194 190 194 172 158 168 188 200 201 203 205 201 203 206 212 184
262 2 335 19 87 284 39 76 83 8 81 66 109 113 125 145 149 129 116 118 111 79 99 130 110 93 67 30 278 197 144 170 189 190 204 214 206 211 214 208 201 202 208 201
169 348 8 192 82 85 80 83 79 54 54 49 89 120 144 141 135 144 118 118 111 125 102 95 116 89 83 79 91 133 173 180 197 197 184 185 188 195 210 241 240 229 192 206
56 280 79 133 84 68 65 49 51 68 55 69 86 74 101 122 131 127 123 104 118 106 107 86 86 108 110 104 97 112 144 192 215 208 210 216 225 227 239 244 241 215 207 206
253 54 3 47 22 343 63 44 42 98 86 78 93 92 98 105 113 109 109 118 122 113 125 106 107 112 127 130 135 145 158 184 222 235 237 227 220 219 207 198 187 205 222 212
Height
748 764 770 753 744 736 742 757 754 747 741 754 750 745 736 731 736 741 748 757 763 766 769 777 783 787 790 795 800 804 809 812 813 813 813 814 814 813 816 818 819 818 821 820
759 773 747 737 741 743 751 759 762 746 745 751 745 750 733 732 735 734 739 748 758 759 765 773 781 785 788 792 798 802 806 809 811 812 812 813 815 816 817 819 819 819 820 820
767 748 736 750 754 762 758 762 758 761 747 744 749 758 744 735 732 734 736 734 744 752 758 769 776 782 786 790 795 799 804 806 809 811 812 813 815 817 817 817 817 818 819 818
755 738 753 758 763 755 772 743 749 754 764 775 743 783 758 737 741 737 734 733 738 747 751 762 773 779 784 788 793 797 801 804 806 808 811 812 812 812 814 816 817 818 819 818
760 753 759 764 757 747 761 734 748 755 762 760 754 769 752 739 749 739 735 736 734 740 747 759 769 776 781 786 791 795 800 803 806 807 809 812 811 811 813 814 816 818 817 817
748 734 743 747 741 742 736 752 754 755 760 784 762 764 763 748 743 739 736 739 736 739 747 755 765 775 780 785 789 793 798 801 804 807 808 809 810 811 811 813 815 814 815 814
757 753 742 737 753 745 749 763 791 797 787 785 749 770 760 743 738 737 740 738 738 739 745 754 764 773 778 784 788 792 797 799 802 805 807 808 809 811 812 812 812 813 813 813
768 777 749 737 747 755 758 756 776 801 786 773 755 782 762 735 732 734 735 733 737 741 746 753 763 771 777 782 787 790 796 799 801 803 806 807 808 810 811 813 812 814 814 815
758 761 725 731 733 736 752 769 740 764 756 776 757 750 739 734 736 737 738 738 742 743 747 754 762 769 775 779 783 788 795 798 801 803 804 807 809 808 809 813 814 814 815 816
743 769 733 734 731 731 742 733 770 765 799 797 766 762 765 751 744 745 746 748 749 748 751 755 760 766 773 778 784 788 795 798 800 803 805 806 807 809 811 814 815 815 817 818
739 754 742 735 753 752 754 758 749 744 754 776 787 763 727 738 736 743 748 748 749 750 751 755 759 765 772 778 784 789 794 799 802 804 806 804 806 809 813 816 816 817 818 819
735 746 762 751 730 727 729 743 749 772 779 764 769 774 725 733 735 740 748 751 750 749 750 755 759 767 770 775 782 791 795 799 803 805 809 810 811 813 815 817 817 819 821 822
733 754 772 764 741 736 747 739 736 741 750 770 779 769 727 732 739 741 751 753 755 754 755 758 762 768 771 776 786 794 798 801 804 807 809 812 814 814 817 818 819 820 821 822
734 744 759 761 751 731 751 748 740 747 764 763 760 767 750 742 746 751 753 753 754 755 758 760 765 769 772 781 789 796 799 801 804 807 809 810 812 815 817 819 820 821 821 822
740 764 752 742 734 728 727 738 740 749 747 758 754 770 758 746 740 749 751 755 757 758 759 762 767 771 775 781 789 795 798 802 805 807 809 810 812 815 817 819 820 821 822 824
737 761 751 751 736 733 742 730 731 735 737 739 737 767 768 757 742 750 755 757 760 760 759 762 766 770 775 783 786 790 796 802 804 808 809 812 813 815 818 819 821 822 823 824
745 750 759 765 738 739 754 737 731 734 728 734 749 757 769 764 753 757 757 756 760 761 762 764 767 770 775 783 786 792 795 800 804 805 808 811 814 816 819 820 821 822 824 825
747 753 750 757 747 773 730 710 714 727 725 722 736 747 743 752 752 754 756 757 761 765 765 766 767 771 775 781 786 791 795 798 801 804 807 810 813 816 818 820 822 823 824 825
736 744 751 759 754 734 725 722 723 727 734 715 727 741 748 749 754 761 757 762 767 770 774 776 775 772 775 779 786 789 793 796 800 802 806 809 812 813 817 819 822 822 823 825
734 738 748 742 761 766 725 705 701 709 750 723 727 740 748 747 757 750 759 759 771 776 780 781 779 777 777 782 787 790 792 796 797 800 804 807 810 813 815 817 819 821 824 826
750 748 753 745 747 744 732 724 717 752 759 732 730 735 742 747 751 758 760 766 772 778 782 781 780 778 780 784 788 790 792 793 795 797 801 805 808 809 813 815 817 819 822 823
743 752 745 735 765 764 734 732 752 749 738 734 734 738 741 748 754 755 758 767 774 778 782 783 784 785 784 786 789 790 792 794 796 797 799 803 805 807 809 812 815 818 820 821
756 754 759 756 767 768 741 747 743 744 744 743 742 741 744 751 756 761 767 771 775 779 781 784 786 788 789 788 788 789 793 796 797 797 799 801 803 804 806 809 811 814 816 817
741 740 742 750 749 755 749 744 742 749 752 748 744 746 747 753 758 764 768 774 777 781 783 782 785 790 791 791 792 792 794 796 798 798 798 800 801 802 803 805 807 809 809 812
752 741 745 744 747 745 747 749 749 752 753 753 753 754 756 755 762 767 772 777 781 783 785 785 787 791 793 793 793 794 794 796 797 798 798 800 800 801 801 802 803 805 805 806
742 757 750 769 755 754 759 759 755 754 756 757 757 759 763 761 764 767 775 778 781 784 787 786 789 790 792 793 794 794 795 795 797 798 797 797 798 800 799 801 801 802 804 806